铱星星座 121星 (IRIDIUM 121)

导读

IRIDIUM 121是美国于2017年6月25日发射的铱星系统卫星,属于铱星 NEXT星座的组成部分,承担全球卫星通信服务任务。该星座旨在替代初代铱星系统,可提供覆盖南北极在内的全球话音、数据通信服务,满足海事、航空、偏远区域等场景的通信需求,推动了全球无缝移动通信网络的构建。

Basic Information
目录编号:
42812
目录名称:
IRIDIUM 121
国际标识:
2017-039K
轨道中心:
EARTH
卫星名称:
铱星星座 121星
卫星全名:
铱星星座 121星 (IRIDIUM 121)
卫星状态:
在轨 (已飞行3274 天)
发射日期:
2017-06-25 UTC
国别 :
美国 (US)
星等 :
--
Orbit Information
数据来源 国际轨道数据 AOE轨道数据
星历时间 2026-06-12T09:47:23+0800
19小时前
查看轨道信息
2026-06-10T09:00:00+0800
2天前
查看轨道信息
半长轴 7155.806km 7155.801km
偏心率 0.0002117 0.0002146
轨道倾角 86.397° 86.399°
近地点辐角 90.174° 89.720°
升交点赤经 355.809° 356.659°
平近点角 269.970° 220.804°
近地点 776.154km 776.128km
远地点 779.184km 779.2km
周期 100.403分钟 100.403分钟
每日圈数 14.342174 14.342189
Detailed Information
平衡模式:
三轴稳定
覆盖范围:
全球
运营商:
铱星通信公司
运营商所在国:
美国
制造商(研发单位):
阿莱尼亚宇航公司
制造商所在国:
意大利
使用方式:
暂无
Satellite Introduction
铱星(Iridium)是由共66个运作中的通信卫星组成的卫星通信系统。这个系统原本规划77个通信卫星,所以用原子序数为77的铱元素来命名。铱卫星允许人们使用手持型电子设备进行全球性的语音及数据通讯。该卫星仍在工作。
2D Orbit Map
3D Orbit Map
Orbit Altitude Analysis Chart
Orbit Inclination Analysis Chart
Orbit Comprehensive Analysis Chart
View Comprehensive Chart